EW3700 Weather Reports


time (UTC)temp
F
wind
direction
speed
knots
gust
knots
rain 1hr
in
rain 24hr
in
rain mn
in
humidity
%
barometer
mb
20240518203020 80 293 3.5 13.0 0.00 0.27 0.02 47 1005.3
20240518202020 80 270 2.6 6.1 0.00 0.27 0.02 49 1005.2
20240518201017 79 293 4.3 12.2 0.00 0.27 0.02 47 1005.0
20240518200017 79 270 4.3 16.5 0.00 0.27 0.02 50 1004.9
20240518195021 80 270 4.3 13.0 0.00 0.27 0.02 49 1004.8
20240518194017 81 270 4.3 10.4 0.00 0.27 0.02 49 1004.8
20240518193017 80 270 4.3 7.8 0.00 0.27 0.02 49 1004.6
20240518192017 80 270 3.5 9.6 0.00 0.27 0.02 50 1004.4
20240518191016 80 315 4.3 9.6 0.00 0.27 0.02 50 1004.4
20240518190017 80 270 4.3 8.7 0.00 0.27 0.02 52 1004.3
20240518185017 80 293 4.3 9.6 0.00 0.27 0.02 51 1004.2
20240518184017 79 270 3.5 11.3 0.00 0.27 0.02 54 1003.9
20240518183017 78 270 4.3 12.2 0.00 0.27 0.02 55 1003.8
20240518182017 79 293 2.6 7.8 0.00 0.27 0.02 56 1003.6
20240518181017 80 315 2.6 7.0 0.00 0.27 0.02 54 1003.5
20240518180017 80 270 2.6 7.0 0.00 0.27 0.02 54 1003.5
20240518175017 80 270 1.7 7.8 0.00 0.27 0.02 55 1003.4
20240518174017 79 270 2.6 9.6 0.00 0.27 0.02 55 1003.4
20240518173019 79 270 2.6 9.6 0.00 0.27 0.02 55 1003.4
20240518172021 79 270 3.5 7.8 0.00 0.27 0.02 55 1003.2
20240518171017 79 248 2.6 8.7 0.00 0.27 0.02 56 1003.1
20240518170021 79 270 1.7 7.8 0.00 0.27 0.02 58 1003.0
20240518165019 78 293 2.6 8.7 0.00 0.27 0.02 57 1003.0
20240518164020 78 270 0.9 6.1 0.00 0.27 0.02 58 1002.9
20240518163017 78 270 3.5 7.8 0.00 0.27 0.02 58 1003.0
20240518162017 78 180 2.6 7.0 0.00 0.27 0.02 57 1002.8
20240518161017 78 203 1.7 6.1 0.00 0.27 0.02 58 1002.7
20240518160016 77 270 1.7 7.0 0.00 0.27 0.02 59 1002.5
20240518155017 77 203 1.7 7.8 0.00 0.27 0.02 58 1002.4
20240518154016 77 180 1.7 7.0 0.00 0.27 0.02 59 1002.2
20240518153016 77 203 2.6 7.8 0.00 0.27 0.02 60 1002.0
20240518152017 76 270 1.7 5.2 0.00 0.27 0.02 63 1002.1
20240518151017 76 293 1.7 8.7 0.00 0.27 0.02 62 1002.1
20240518150017 75 203 2.6 7.8 0.00 0.27 0.02 63 1001.9
20240518145017 75 203 2.6 6.1 0.00 0.27 0.02 64 1001.7
20240518144036 74 180 1.7 7.0 0.00 0.27 0.02 67 1001.9
20240518143017 73 203 1.7 6.1 0.00 0.27 0.02 69 1001.9
20240518142017 72 225 1.7 7.8 0.00 0.27 0.02 68 1001.9
20240518141056 73 180 2.6 5.2 0.00 0.27 0.02 67 1001.9
20240518140016 72 180 1.7 10.4 0.00 0.27 0.02 68 1001.9
20240518135017 72 180 2.6 7.8 0.00 0.27 0.02 68 1001.8
20240518134016 71 203 2.6 7.8 0.00 0.27 0.02 69 1001.6
20240518133016 70 180 2.6 8.7 0.00 0.27 0.02 70 1001.8
20240518132017 69 180 0.9 2.6 0.00 0.27 0.02 73 1001.7
20240518131016 69 203 1.7 7.8 0.00 0.27 0.02 71 1001.8
20240518130016 69 180 2.6 7.0 0.00 0.27 0.02 72 1001.8
20240518125036 68 203 1.7 5.2 0.00 0.27 0.02 74 1001.7
20240518124018 67 180 1.7 6.1 0.00 0.27 0.02 75 1001.5
20240518123018 67 158 0.9 4.3 0.00 0.27 0.02 77 1001.4
20240518122018 66 180 1.7 7.0 0.00 0.27 0.02 77 1001.5
20240518121018 66 180 1.7 6.1 0.00 0.27 0.02 77 1001.4
20240518120018 65 180 2.6 7.8 0.00 0.27 0.02 77 1001.2
20240518115018 65 135 0.9 3.5 0.00 0.27 0.02 78 1001.1
20240518114018 65 135 1.7 5.2 0.00 0.27 0.02 78 1000.8
20240518113018 65 135 1.7 4.3 0.00 0.27 0.02 78 1000.7
20240518112036 65 180 1.7 7.0 0.00 0.27 0.02 78 1000.8
20240518111018 65 180 0.9 4.3 0.00 0.27 0.02 77 1001.0
20240518110018 65 180 1.7 4.3 0.00 0.27 0.02 77 1000.9
20240518105018 65 180 2.6 7.8 0.00 0.27 0.02 78 1001.0
20240518104038 64 113 1.7 4.3 0.00 0.27 0.02 79 1001.1
20240518103018 64 113 0.9 7.0 0.00 0.27 0.02 79 1001.0
20240518102018 64 158 0.9 4.3 0.00 0.27 0.02 79 1000.8
20240518101018 64 158 1.7 6.1 0.00 0.27 0.02 79 1000.8
20240518100018 65 135 2.6 7.0 0.00 0.27 0.02 78 1001.0
20240518095018 65 158 1.7 6.1 0.00 0.27 0.02 78 1001.1
20240518094021 65 180 1.7 7.8 0.00 0.27 0.02 77 1001.0
20240518093038 65 135 2.6 8.7 0.00 0.27 0.02 77 1000.9
20240518092018 65 158 0.9 5.2 0.00 0.27 0.02 78 1001.1
20240518091018 65 158 1.7 4.3 0.00 0.27 0.02 78 1001.1
20240518090017 65 180 2.6 6.1 0.00 0.27 0.02 78 1001.1
20240518085018 65 158 2.6 7.0 0.00 0.27 0.02 78 1000.9
20240518084018 65 158 1.7 5.2 0.00 0.27 0.02 79 1000.9
20240518083038 65 180 0.9 3.5 0.00 0.27 0.02 79 1000.9
20240518082018 66 180 1.7 4.3 0.00 0.27 0.02 77 1001.2
20240518081018 66 180 2.6 8.7 0.01 0.27 0.02 77 1001.3
20240518080018 65 180 1.7 6.1 0.02 0.27 0.02 79 1001.2
20240518075037 65 135 1.7 6.1 0.02 0.27 0.02 82 1001.2
20240518074058 64 135 0.9 3.5 0.02 0.27 0.02 83 1001.4
20240518073018 64 180 3.5 9.6 0.02 0.27 0.02 82 1001.6
20240518072018 65 180 2.6 8.7 0.02 0.27 0.02 82 1001.4
20240518071021 65 203 3.5 8.7 0.01 0.26 0.01 80 1001.2
20240518070022 65 293 1.7 12.2 0.00 0.25 0.00 79 1001.1
20240518065020 65 135 1.7 8.7 0.00 0.25 0.00 78 1000.7
20240518064021 65 158 2.6 8.7 0.00 0.25 0.00 79 1001.0
20240518063018 65 180 3.5 7.8 0.00 0.25 0.00 80 1001.2
20240518062017 65 135 0.9 4.3 0.00 0.25 0.00 81 1001.1
20240518061020 65 158 1.7 4.3 0.00 0.25 0.00 82 1001.3
20240518060017 65 158 1.7 5.2 0.00 0.25 0.00 83 1001.3
20240518055017 65 158 1.7 6.1 0.00 0.25 0.00 82 1001.2
20240518054017 64 180 1.7 6.1 0.00 0.25 0.00 83 1001.3
20240518053017 64 180 0.9 6.1 0.00 0.25 0.00 84 1001.3
20240518052017 64 180 0.9 5.2 0.00 0.25 0.00 85 1001.4
20240518051018 64 180 1.7 6.1 0.00 0.25 0.00 85 1001.4
20240518050017 64 113 2.6 7.0 0.00 0.25 0.25 86 1001.4
20240518045017 64 113 1.7 7.0 0.00 0.25 0.25 86 1001.5
20240518044017 64 158 1.7 7.0 0.00 0.25 0.25 86 1001.7
20240518043017 64 135 1.7 5.2 0.00 0.25 0.25 86 1001.7
20240518042019 64 113 1.7 3.5 0.02 0.25 0.25 86 1001.6
20240518041037 64 158 1.7 7.8 0.02 0.25 0.25 87 1001.6
20240518040019 64 158 1.7 4.3 0.02 0.25 0.25 87 1001.8
20240518035020 64 158 0.9 3.5 0.02 0.25 0.25 87 1002.0
20240518034016 64 158 0.9 3.5 0.02 0.25 0.25 88 1002.0
20240518033017 64 158 0.9 3.5 0.02 0.25 0.25 88 1001.8
20240518032016 64 158 0.9 2.6 0.00 0.23 0.23 88 1001.6
20240518031036 63 158 0.9 4.3 0.00 0.23 0.23 89 1001.4
20240518030016 63 158 0.9 3.5 0.00 0.23 0.23 89 1001.5
20240518025017 63 158 0.9 4.3 0.00 0.23 0.23 90 1001.5
20240518024016 63 158 0.9 4.3 0.01 0.23 0.23 91 1001.6
20240518023016 63 180 0.9 7.8 0.04 0.23 0.23 91 1001.8
20240518022016 63 203 0.9 3.5 0.09 0.23 0.23 92 1001.9
20240518021017 63 203 0.9 3.5 0.12 0.23 0.23 91 1002.5
20240518020016 63 203 1.7 5.2 0.14 0.23 0.23 91 1002.4
20240518015016 64 270 0.9 2.6 0.15 0.23 0.23 91 1002.6
20240518014016 64 270 0.9 2.6 0.14 0.22 0.22 92 1003.1
20240518013016 65 270 0.9 2.6 0.12 0.19 0.19 91 1003.9
20240518012016 65 0.0 1.7 0.12 0.14 0.14 91 1003.9
20240518011016 65 0.0 0.9 0.10 0.11 0.11 91 1003.7
20240518010038 65 0.0 1.7 0.08 0.09 0.09 89 1003.6
20240518005018 65 0.0 0.0 0.08 0.08 0.08 88 1003.3
20240518004018 65 0.0 2.6 0.08 0.08 0.08 85 1002.9
20240518003016 66 270 2.6 6.1 0.07 0.07 0.07 81 1002.9
20240518002018 68 315 4.3 10.4 0.02 0.02 0.02 76 1002.5
20240518001018 70 315 2.6 7.8 0.01 0.01 0.01 68 1002.3
20240518000018 74 248 1.7 7.8 0.01 0.01 0.01 58 1001.7
20240517235018 80 180 0.9 3.5 0.00 0.00 0.00 45 1001.5
20240517234018 81 203 1.7 6.1 0.00 0.00 0.00 40 1000.8
20240517233018 82 180 1.7 5.2 0.00 0.00 0.00 37 1000.5
20240517232038 82 180 2.6 7.0 0.00 0.00 0.00 36 1000.3
20240517231018 82 180 3.5 10.4 0.00 0.00 0.00 36 1000.2
20240517230018 82 180 3.5 8.7 0.00 0.00 0.00 35 1000.5
20240517225018 83 180 3.5 8.7 0.00 0.00 0.00 35 1000.5
20240517224118 84 180 4.3 10.4 0.00 0.00 0.00 34 1000.3
20240517223018 85 180 3.5 8.7 0.00 0.00 0.00 34 1000.4
20240517222038 85 180 4.3 13.9 0.00 0.00 0.00 33 1000.6
20240517221018 86 225 3.5 9.6 0.00 0.00 0.00 32 1000.7
20240517220018 86 180 3.5 9.6 0.00 0.00 0.00 33 1000.7
20240517215018 86 180 4.3 9.6 0.00 0.00 0.00 33 1000.9
20240517214017 85 203 2.6 9.6 0.00 0.00 0.00 35 1000.7
20240517213018 84 158 2.6 9.6 0.00 0.00 0.00 37 1000.8
20240517212017 85 180 1.7 7.0 0.00 0.00 0.00 36 1001.1
20240517211038 86 158 2.6 7.8 0.00 0.00 0.00 38 1001.3
20240517210018 85 180 2.6 7.0 0.00 0.00 0.00 38 1001.2
20240517205018 85 180 3.5 7.8 0.00 0.00 0.00 37 1001.1
20240517204018 85 158 1.7 7.0 0.00 0.00 0.00 38 1001.2